Location: ????
(30.1475°N, 31.1342°E)
Time: 12:56:00
(UTC+00:00)

Cosmos 1605 Rocket - Visible Passes

Search period start: 16 June 2025 00:00
Search period end: 26 June 2025 00:00
Orbit: 944 x 1005 km, 82.9° (Epoch: 16 June)

Date Brightness Start Highest point End Pass type
(mag) Time Alt. Az. Time Alt. Az. Time Alt. Az.
16 Jun 4.5 17:42:12 10° NNE 17:47:52 39° E 17:53:14 11° SSE visible
16 Jun 6.0 19:28:22 10° NW 19:32:49 22° W 19:37:17 10° SW visible
17 Jun 3.9 18:06:54 10° N 18:13:00 79° E 18:18:43 12° S visible
18 Jun 4.6 18:32:06 10° NNW 18:37:59 53° W 18:43:51 10° SSW visible
19 Jun 5.8 18:57:52 10° NNW 19:02:49 27° W 19:07:45 10° SW visible
20 Jun 4.0 17:36:51 10° N 17:42:53 64° E 17:48:54 10° SSE visible
20 Jun 6.5 19:25:01 10° WNW 19:27:30 13° W 19:30:00 10° WSW visible
21 Jun 4.3 18:01:54 10° NNW 18:07:55 65° W 18:13:55 10° S visible
22 Jun 5.5 18:27:29 10° NNW 18:32:47 33° W 18:38:06 10° SSW visible
23 Jun 6.4 18:54:00 10° NW 18:57:32 16° W 19:01:04 10° WSW visible
24 Jun 4.1 17:31:45 10° N 17:37:50 80° W 17:43:55 10° S visible
25 Jun 5.3 17:57:09 10° NNW 18:02:45 40° W 18:08:21 10° SSW visible
